Location: �perlecques
(50.8057°N, 2.1521°E)
Time: 13:55:11
(UTC+00:00)

Cosmos 1825 - Pass Details

Date: 09 April 2020
Orbit: 502 x 509 km, 82.5° (Epoch: 02 June)

Event Time Altitude Azimuth Distance (km) Brightness Sun altitude
Rises 21:34:48 0° 346° (NNW) 2,631 6.9 -24.1°
Reaches altitude 10° 21:36:58 10° 341° (NNW) 1,739 5.8 -24.3°
Enters shadow 21:40:21 51° 286° (WNW) 646 2.8 -24.6°
